Regional Weather Roundup
Issued by NWS

Home | Current Version | Previous Version | Graphics & Text | Print | Product List | Glossary On
Versions: 1 2 3 4 5 6 7 8 9 10 11 12 13 14 15 16 17 18 19 20 21 22 23 24 25 26 27 28 29 30 31 32 33 34 35 36 37 38 39 40 41 42 43 44 45 46 47 48 49 50
000
ASUS43 KOAX 281110
RWRNE

WEATHER ROUNDUP FOR NEBRASKA
NATIONAL WEATHER SERVICE OMAHA NE
500 AM CST TUE FEB 28 2017

NOTES: SATELLITE DATA IS BEING USED TO AUGMENT CLOUD COVER ABOVE
       12000 FEET.
       "FAIR" INDICATES FEW OR NO CLOUDS BELOW 12,000 FEET WITH NO
       SIGNIFICANT WEATHER AND/OR OBSTRUCTIONS TO VISIBILITY.

  * THESE STATIONS DO NOT REPORT WEATHER SUCH AS RAIN...SNOW OR FOG.

NEZ001>004-019>022-054>056-281200-
NEBRASKA PANHANDLE

CITY           SKY/WX    TMP DP  RH WIND       PRES   REMARKS
SCOTTSBLUFF    CLOUDY    30  15  53 W21       29.68F WCI  17
ALLIANCE       PTCLDY    23  16  74 W13       29.66S WCI  11
CHADRON        CLOUDY    15  12  88 SW5       29.69S WCI   8
KIMBALL        CLEAR     28  16  62 NW7       29.68R WCI  20
SIDNEY         CLEAR     27  16  63 NW15      29.69F WCI  15
$$

NEZ057>060-069>072-079>082-281200-
SOUTHWEST NEBRASKA

CITY           SKY/WX    TMP DP  RH WIND       PRES   REMARKS
NORTH PLATTE   CLEAR     27  21  78 NW12      29.69S WCI  17
IMPERIAL       CLOUDY    29  24  82 NW14      29.70F WCI  18
LEXINGTON      CLEAR     28  25  89 W7        29.64S WCI  21
MCCOOK         CLEAR     29  23  78 NW12      29.68S WCI  19
OGALLALA       CLEAR     29  26  88 CALM      29.70S
$$

NEZ005>010-023>029-035>040-094-281200-
NORTH CENTRAL NEBRASKA

CITY           SKY/WX    TMP DP  RH WIND       PRES   REMARKS
VALENTINE      CLOUDY    28  22  78 CALM      29.71R
AINSWORTH      PTCLDY    27  25  94 NW9       29.69R WCI  18
BROKEN BOW     CLEAR     31  28  89 NW13      29.65R WCI  21
O`NEILL        CLOUDY    30  28  94 CALM      29.66R
ORD            CLEAR     32  28  85 NW13      29.64R WCI  22
THEDFORD       CLEAR     27  23  86 NW9       29.69F WCI  18
$$

NEZ041-046>049-061>064-073>077-083>087-281200-
SOUTH CENTRAL NEBRASKA

CITY           SKY/WX    TMP DP  RH WIND       PRES   REMARKS
GRAND ISLAND   CLOUDY    32  32 100 W12       29.61  FOG     WCI  23
AURORA         CLOUDY    37  36  95 W13       29.60R WCI  29
HASTINGS       CLOUDY    36  29  75 NW17      29.62R WCI  26
HEBRON         PTCLDY    40  32  73 SW8       29.60R WCI  34
HOLDREGE       CLEAR     32  28  83 NW9       29.63R WCI  24
KEARNEY *      CLEAR     34  27  75 NW13      29.63R WCI  25
YORK           CLOUDY    37  34  87 W13       29.58R WCI  29
$$

NEZ011>018-030>034-042>045-281200-
NORTHEAST NEBRASKA

CITY           SKY/WX    TMP DP  RH WIND       PRES   REMARKS
NORFOLK        CLOUDY    36  31  82 NW6       29.60R WCI  31
ALBION         CLOUDY    36  33  88 NW9       29.62R WCI  29
BLAIR          CLOUDY    47  46  93 S7        29.56S
FREMONT        PTCLDY    35  35 100 CALM      29.57S
TEKAMAH        CLOUDY    36  32  85 NW7       29.57F WCI  30
WAYNE          CLOUDY    34  32  91 NW7       29.61R WCI  28
$$

NEZ050>053-065>068-078-088>093-281200-
SOUTHEAST NEBRASKA

CITY           SKY/WX    TMP DP  RH WIND       PRES   REMARKS
LINCOLN        CLOUDY    45  38  76 SW9       29.58R
OMAHA EPPLEY   CLOUDY    45  37  73 S5        29.57R
BEATRICE       CLOUDY    48  39  70 S8        29.60R
FALLS CITY     CLOUDY    58  54  86 S15       29.61R
NEBRASKA CITY  CLOUDY    52  48  84 SW15      29.57S
PLATTSMOUTH    CLOUDY    50  46  86 S8        29.57S
$$

NEZ044-045-051>053-067-281200-
OMAHA AREA

CITY           SKY/WX    TMP DP  RH WIND       PRES   REMARKS
OMAHA EPPLEY   CLOUDY    45  37  73 S5        29.57R
BLAIR          CLOUDY    47  46  93 S7        29.56S
FREMONT        PTCLDY    35  35 100 CALM      29.57S
MILLARD        CLOUDY    50  47  91 CALM      29.57R
OFFUTT AFB     CLOUDY    37  36  93 SE3       29.57R FOG
PLATTSMOUTH    CLOUDY    50  46  86 S8        29.57S
WAHOO          FAIR      32  31  96 NW3       29.57R FOG
$$




USA.gov is the U.S. government's official web portal to all federal, state and local government web resources and services.